Showing default

UHETSAT, 58466

Orbit data source: Space-Track

UHETSAT, 58466 is a payload satellite owned by SITAEL SpA (IT) in SSO that was launched on Fri, 01 Dec 2023 UTC via an FALCON 9 launch vehicle from the Air Force Western Test Range (AFWTR). Payload-class satellites include a variety of spacecraft equipped with specific instruments for various scientific and technological missions. These include communications satellites like Starlink; space stations such as the ISS; scientific satellites like the Hubble; Earth observation satellites from companies like Planet Labs, Umbra, and HawkEye 360; GPS; miniature CubeSats for education and research; and military/defense satellites.

Loading next visibility...
Identifier
58466, 2023-185E
Orbit
SSO
Country
Flag of ITIT
Related business
Manufacturer
SITAEL SpA
Mission
Operational Commercial Technology
Bus & Motor
S-50, Unknown motor
Mass
70 kg wet, 70 kg dry
Launch date (UTC)
2023-12-01 (3 years ago)
Launch vehicle
FALCON 9
Launch site
Air Force Western Test Range (AFWTR)
Object type
Payload
Rocket body
Debris
Shape & HBR
Box, 0.3 m
Radar Cross Section
0.360 m², Medium (>0.1 m² and < 1m²)

Expand to show TLE details & history
Last TLE update: 1 week ago

TLE from 1 week ago
0 UHETSAT
1 58466U 23185E   26155.24963237  .00007746  00000-0  26026-3 0  9996
2 58466  97.3483 222.8355 0012761   5.0583 355.0785 15.31037110139312
Epoch: 2026-06-04T05:59Z
TLE epoch observation values (Epoch: 2026-06-04T05:59:28.236Z)
Latitude
-0.00003°
Longitude
-119.72875°
Altitude
467.112 km
Speed
7.638 km/s
True Right ascension
14h 51m 20s
True Declination
0° 00' 00"
Sunlit
Object was in full shadow at epoch
Visualization orbit readout
Latitude
Unknown
Longitude
Unknown
Altitude
Unknown
Speed
Unknown
Apparent Right ascension
Unknown
Apparent Declination
Unknown
Sunlit
N/A
Visualization observer readout
Local Sidereal Time
06:13:58
Azimuth
Unknown
Elevation
Unknown
Doppler factor
Unknown
Orbital elements
Apogee altitude
478.404 km
Perigee altitude
460.927 km
Semi-major axis
6,847.802 km
Eccentricity
0.00128
Inclination
97.3483°
RAAN
222.8355°
Arg. of periapsis
5.0583°
True anomaly
355.06593°
Mean anomaly
355.0785°
Eccentric anomaly
355.07222°
Mean motion
3.83015 °/min
Orbital period
93.99 mins
BSTAR
0.00026026
Loading maneuver chart data...
Computing Atmospheric mass density...
Loading historical data...
Loading historical data...
Loading historical data...
Loading historical data...
Loading historical data...
Loading historical data...
Loading historical data...

Documentation

Showing up to 5 results
|